Retour au catalogue

STARLINK-35028

ActifCommunicationsSSO
NORAD 65381·PAYLOAD·🇺🇸 United States

Lancé Aug 30, 2025 depuis Vandenberg Space Force Base

Loading…

Prochains Passages (prochaines 24 heures)

TLE

FraisSource: CelesTrak SupGP

Époque: Sep 14, 2026, 22:48 UTC

1 65381C 25191C   26257.95048611  .00069028  00000+0  21420-2 0  2579
2 65381  97.2845 124.0264 0001622 101.8568 342.2665 15.33414980    16

Suivez STARLINK-35028 en temps réel avec AllMySat

Download on the App Store